Location: Asar Burnu
(36.5203°N, 30.5523°E)
Time: 10:53:27
(UTC+00:00)

SPOT 5 - Pass Details

Date: 04 August 2024
Orbit: 619 x 808 km, 98.1° (Epoch: 18 September)

Event Time Altitude Azimuth Distance (km) Brightness Sun altitude
Exits shadow 17:42:42 10° 118° (ESE) 2,342 4.8 -8.5°
Maximum altitude 17:46:43 24° 67° (ENE) 1,637 4.4 -9.2°
Drops below altitude 10° 17:50:51 10° 16° (NNE) 2,400 5.8 -9.9°
Sets 17:53:37 0° 3° (N) 3,330 6.7 -10.4°
